FW9582 Weather Reports


Display with metric or nautical units.
time (UTC)temp
F
wind
direction
speed
MPH
gust
MPH
rain 1hr
in
rain 24hr
in
rain mn
in
humidity
%
barometer
mb
20240615082756 68 265 0.0 0.0 0.00 0.00 0.00 99 1012.5
20240615082255 68 266 0.0 0.0 0.00 0.00 0.00 99 1012.5
20240615081754 68 266 0.0 0.0 0.00 0.00 0.00 99 1012.6
20240615081252 68 266 0.0 0.0 0.00 0.00 0.00 99 1012.6
20240615080752 68 265 0.0 0.0 0.00 0.00 0.00 99 1012.5
20240615080250 68 266 0.0 0.0 0.00 0.00 0.00 99 1012.6
20240615075748 68 265 0.0 0.0 0.00 0.00 0.00 99 1012.7
20240615075247 68 265 0.0 0.0 0.00 0.00 0.00 99 1012.6
20240615074745 68 266 0.0 0.0 0.00 0.00 0.00 99 1012.6
20240615074243 68 265 0.0 0.0 0.00 0.00 0.00 99 1012.9
20240615073740 68 265 0.0 0.0 0.00 0.00 0.00 99 1012.7
20240615073238 68 265 0.0 0.0 0.00 0.00 0.00 99 1012.7
20240615072737 69 266 0.0 0.0 0.00 0.00 0.00 99 1012.7
20240615072236 69 265 0.0 0.0 0.00 0.00 0.00 99 1012.5
20240615071734 69 265 0.0 0.0 0.00 0.00 0.00 99 1012.5
20240615071233 68 265 0.0 0.0 0.00 0.00 0.00 99 1012.5
20240615070733 68 265 0.0 0.0 0.00 0.00 0.00 99 1012.4
20240615070232 68 265 0.0 0.0 0.00 0.00 0.00 99 1012.5
20240615065731 68 265 0.0 0.0 0.00 0.00 0.00 99 1012.5
20240615065230 69 265 0.0 0.0 0.00 0.00 0.00 99 1012.4
20240615064727 69 265 0.0 0.0 0.00 0.00 0.00 99 1012.6
20240615064225 69 265 0.0 0.0 0.00 0.00 0.00 99 1012.6
20240615063723 69 265 0.0 0.0 0.00 0.00 0.00 99 1012.5
20240615063222 69 265 0.0 0.0 0.00 0.00 0.00 99 1012.4
20240615062719 69 265 0.0 0.0 0.00 0.00 0.00 99 1012.6
20240615062217 69 265 0.0 0.0 0.00 0.00 0.00 99 1012.4
20240615061717 69 264 0.0 0.0 0.00 0.00 0.00 99 1012.4
20240615061216 69 264 0.0 0.0 0.00 0.00 0.00 99 1012.5
20240615060715 69 264 0.0 0.0 0.00 0.00 0.00 99 1012.7
20240615060215 69 264 0.0 0.0 0.00 0.00 0.00 99 1012.5
20240615055714 69 264 0.0 0.0 0.00 0.00 0.00 99 1012.5
20240615055212 70 264 0.0 0.0 0.00 0.00 0.00 99 1012.5
20240615054712 70 264 0.0 0.0 0.00 0.00 0.00 99 1012.4
20240615054210 70 264 0.0 0.0 0.00 0.00 0.00 99 1012.4
20240615053710 70 264 0.0 0.0 0.00 0.00 0.00 99 1012.7
20240615053208 70 264 0.0 0.0 0.00 0.00 0.00 99 1012.5
20240615052708 70 264 0.0 0.0 0.00 0.00 0.00 99 1012.6
20240615052207 70 264 0.0 0.0 0.00 0.00 0.00 99 1012.6
20240615051707 70 264 0.0 0.0 0.00 0.00 0.00 99 1012.6
20240615051206 71 264 0.0 0.0 0.00 0.00 0.00 99 1012.6
20240615050706 71 264 0.0 0.0 0.00 0.00 0.00 99 1012.6
20240615050204 71 264 0.0 0.0 0.00 0.00 0.00 99 1012.8
20240615045702 71 265 0.0 0.0 0.00 0.00 0.00 99 1012.8
20240615045200 70 265 0.0 0.0 0.00 0.00 0.00 99 1012.7
20240615044659 70 265 0.0 0.0 0.00 0.00 0.00 99 1012.7
20240615044156 70 265 0.0 0.0 0.00 0.00 0.00 99 1012.8
20240615043654 70 265 0.0 0.0 0.00 0.00 0.00 99 1012.6
20240615043151 70 265 0.0 0.0 0.00 0.00 0.00 99 1013.0
20240615042650 70 265 0.0 0.0 0.00 0.00 0.00 99 1012.9
20240615042149 70 265 0.0 0.0 0.00 0.00 0.00 99 1012.6
20240615041649 71 264 0.0 0.0 0.00 0.00 0.00 99 1012.8
20240615041147 71 266 0.0 0.0 0.00 0.00 0.00 99 1012.8
20240615040646 70 265 0.0 0.0 0.00 0.00 0.00 99 1012.8
20240615040145 71 265 0.0 0.0 0.00 0.00 0.00 99 1012.8
20240615035643 71 265 0.0 0.0 0.00 0.00 0.00 99 1012.9
20240615035142 71 265 0.0 0.0 0.00 0.00 0.00 99 1012.8
20240615034640 71 265 0.0 0.0 0.00 0.00 0.00 99 1012.7
20240615034139 71 265 0.0 0.0 0.00 0.00 0.00 99 1012.6
20240615033637 71 265 0.0 0.0 0.00 0.00 0.00 99 1012.6
20240615033136 71 266 0.0 0.0 0.00 0.00 0.00 99 1012.6
20240615032635 71 265 0.0 0.0 0.00 0.00 0.00 99 1012.5
20240615032134 72 265 0.0 0.0 0.00 0.00 0.00 99 1012.5
20240615031630 72 265 0.0 0.0 0.00 0.00 0.00 98 1012.5
20240615031130 72 265 0.0 0.0 0.00 0.00 0.00 98 1012.5
20240615030626 72 266 0.0 0.0 0.00 0.00 0.00 98 1012.4
20240615030125 72 265 0.0 0.0 0.00 0.00 0.00 98 1012.0
20240615025624 72 266 0.0 0.0 0.00 0.00 0.00 98 1012.4
20240615025123 73 266 0.0 0.0 0.00 0.00 0.00 98 1012.2
20240615024622 73 219 0.0 1.0 0.00 0.00 0.00 97 1011.9
20240615024121 73 224 0.0 0.0 0.00 0.00 0.00 97 1012.3
20240615023620 73 223 0.0 0.0 0.00 0.00 0.00 97 1012.2
20240615023118 73 219 0.0 1.0 0.00 0.00 0.00 97 1012.0
20240615022615 73 239 0.0 0.0 0.00 0.00 0.00 96 1012.2
20240615022114 73 239 0.0 0.0 0.00 0.00 0.00 96 1011.9
20240615021614 73 239 0.0 0.0 0.00 0.00 0.00 96 1011.8
20240615021113 74 238 0.0 0.0 0.00 0.00 0.00 96 1011.8
20240615020611 74 239 0.0 0.0 0.00 0.00 0.00 95 1011.8
20240615020110 74 239 0.0 0.0 0.00 0.00 0.00 95 1011.9
20240615015608 74 238 0.0 0.0 0.00 0.00 0.00 95 1011.9
20240615015106 75 239 0.0 1.0 0.00 0.00 0.00 94 1011.6
20240615014604 75 244 0.0 0.0 0.00 0.00 0.00 94 1011.6
20240615014104 75 244 1.0 1.0 0.00 0.00 0.00 93 1011.6
20240615013602 75 246 0.0 0.0 0.00 0.00 0.00 93 1011.5
20240615013100 75 246 0.0 0.0 0.00 0.00 0.00 92 1011.7
20240615012558 76 246 0.0 0.0 0.00 0.00 0.00 92 1011.5
20240615012058 76 244 0.0 0.0 0.00 0.00 0.00 92 1011.8
20240615011557 77 244 0.0 1.0 0.00 0.00 0.00 91 1011.7
20240615011057 77 266 0.0 0.0 0.00 0.00 0.00 91 1011.4
20240615010556 78 267 0.0 0.0 0.00 0.00 0.00 90 1011.3
20240615010055 78 267 0.0 0.0 0.00 0.00 0.00 89 1011.2
20240615005554 78 267 0.0 0.0 0.00 0.00 0.00 89 1011.1
20240615005053 79 266 0.0 0.0 0.00 0.00 0.00 88 1011.3
20240615004552 79 267 0.0 0.0 0.00 0.00 0.00 87 1011.1
20240615004051 80 267 0.0 0.0 0.00 0.00 0.00 86 1011.1
20240615003549 80 267 0.0 0.0 0.00 0.00 0.00 84 1011.2
20240615003048 81 267 0.0 0.0 0.00 0.00 0.00 84 1011.1
20240615002547 82 267 0.0 0.0 0.00 0.00 0.00 80 1011.1
20240615002045 83 266 1.0 1.0 0.00 0.00 0.00 78 1010.9
20240615001544 83 267 0.0 0.0 0.00 0.00 0.00 77 1011.1
20240615001044 84 267 0.0 0.0 0.00 0.00 0.00 75 1011.2
20240615000544 84 205 2.0 5.0 0.00 0.00 0.00 70 1011.0
20240615000044 85 284 0.0 1.0 0.00 0.00 0.00 73 1011.1
20240614235542 86 334 0.0 1.0 0.00 0.00 0.00 72 1011.1
20240614235042 88 247 0.0 1.0 0.00 0.00 0.00 69 1011.1
20240614234539 88 247 0.0 1.0 0.00 0.00 0.00 69 1010.9
20240614234038 88 182 1.0 1.0 0.00 0.00 0.00 66 1011.0
20240614233537 88 227 0.0 1.0 0.00 0.00 0.00 68 1010.9
20240614233036 88 256 1.0 6.0 0.00 0.00 0.00 68 1010.9
20240614232534 91 119 0.0 1.0 0.00 0.00 0.00 68 1011.1
20240614232033 90 119 0.0 2.0 0.00 0.00 0.00 68 1010.9
20240614231531 89 219 0.0 1.0 0.00 0.00 0.00 65 1010.6
20240614231030 89 294 0.0 3.0 0.00 0.00 0.00 62 1010.9
20240614230530 90 231 1.0 2.0 0.00 0.00 0.00 63 1011.1
20240614230027 91 19 2.0 3.0 0.00 0.00 0.00 58 1011.2
20240614225527 91 195 1.0 1.0 0.00 0.00 0.00 62 1011.1
20240614225027 91 265 0.0 1.0 0.00 0.00 0.00 65 1011.0
20240614224526 90 26 0.0 1.0 0.00 0.00 0.00 68 1010.9
20240614224023 89 147 0.0 1.0 0.00 0.00 0.00 69 1011.0
20240614223521 89 181 0.0 1.0 0.00 0.00 0.00 65 1010.8
20240614223020 90 298 2.0 3.0 0.00 0.00 0.00 58 1011.0
20240614222518 91 293 1.0 2.0 0.00 0.00 0.00 58 1011.0
20240614222018 91 54 1.0 2.0 0.00 0.00 0.00 58 1011.0
20240614221517 91 235 2.0 3.0 0.00 0.00 0.00 58 1010.8
20240614221016 91 140 3.0 3.0 0.00 0.00 0.00 57 1010.8
20240614220514 91 72 1.0 5.0 0.00 0.00 0.00 58 1010.9
20240614220014 92 104 2.0 3.0 0.00 0.00 0.00 56 1010.8
20240614215511 92 291 0.0 3.0 0.00 0.00 0.00 55 1010.9
20240614215009 91 317 1.0 3.0 0.00 0.00 0.00 62 1011.0
20240614214508 91 19 1.0 2.0 0.00 0.00 0.00 56 1010.9
20240614214007 92 115 4.0 6.0 0.00 0.00 0.00 55 1010.9
20240614213505 92 195 1.0 3.0 0.00 0.00 0.00 58 1010.8
20240614213005 91 271 0.0 1.0 0.00 0.00 0.00 60 1011.0
20240614212502 90 185 1.0 1.0 0.00 0.00 0.00 59 1011.1
20240614212001 90 98 1.0 3.0 0.00 0.00 0.00 59 1011.1
20240614211501 91 209 1.0 3.0 0.00 0.00 0.00 56 1011.2
20240614210958 92 102 2.0 3.0 0.00 0.00 0.00 55 1011.2
20240614210457 92 354 1.0 2.0 0.00 0.00 0.00 62 1011.3
20240614205957 92 137 1.0 2.0 0.00 0.00 0.00 57 1011.2
20240614205455 92 299 1.0 3.0 0.00 0.00 0.00 63 1011.3
20240614204953 91 68 3.0 5.0 0.00 0.00 0.00 54 1011.2
20240614204451 91 329 1.0 2.0 0.00 0.00 0.00 56 1011.3
20240614203950 92 107 1.0 2.0 0.00 0.00 0.00 56 1011.1
20240614203448 92 228 2.0 3.0 0.00 0.00 0.00 55 1011.3
20240614202947 91 168 4.0 5.0 0.00 0.00 0.00 56 1011.4
20240614202445 91 283 2.0 3.0 0.00 0.00 0.00 58 1011.4
20240614201943 91 281 2.0 2.0 0.00 0.00 0.00 54 1011.2
20240614201442 91 76 1.0 5.0 0.00 0.00 0.00 59 1011.2
20240614200941 91 193 1.0 2.0 0.00 0.00 0.00 59 1011.0
20240614200440 90 299 1.0 5.0 0.00 0.00 0.00 58 1011.3
20240614195938 90 182 2.0 3.0 0.00 0.00 0.00 56 1011.2
20240614195437 90 190 4.0 5.0 0.00 0.00 0.00 59 1011.2
20240614194937 91 212 1.0 2.0 0.00 0.00 0.00 56 1011.2
20240614194435 90 279 1.0 1.0 0.00 0.00 0.00 65 1011.3
20240614193934 90 187 3.0 5.0 0.00 0.00 0.00 55 1011.1
20240614193432 90 282 1.0 3.0 0.00 0.00 0.00 56 1011.3
20240614192931 90 180 2.0 2.0 0.00 0.00 0.00 55 1011.2
20240614192430 89 170 3.0 6.0 0.00 0.00 0.00 59 1011.4
20240614191928 89 34 1.0 3.0 0.00 0.00 0.00 59 1011.1
20240614191427 89 277 1.0 8.0 0.00 0.00 0.00 59 1011.4
20240614190926 90 161 4.0 8.0 0.00 0.00 0.00 59 1011.2
20240614190424 89 204 5.0 7.0 0.00 0.00 0.00 58 1011.5
20240614185922 89 202 2.0 3.0 0.00 0.00 0.00 54 1011.1
20240614185422 89 293 1.0 6.0 0.00 0.00 0.00 58 1011.1
20240614184920 89 144 5.0 7.0 0.00 0.00 0.00 58 1011.0
20240614184418 89 295 2.0 6.0 0.00 0.00 0.00 61 1011.0
20240614183916 89 60 3.0 7.0 0.00 0.00 0.00 56 1011.2
20240614183416 90 210 3.0 3.0 0.00 0.00 0.00 61 1011.4
20240614182913 89 123 1.0 5.0 0.00 0.00 0.00 57 1011.3
20240614182410 88 287 3.0 6.0 0.00 0.00 0.00 56 1011.6
20240614181909 89 269 3.0 3.0 0.00 0.00 0.00 58 1011.7
20240614181408 88 278 5.0 6.0 0.00 0.00 0.00 54 1011.6
20240614180902 88 152 2.0 5.0 0.00 0.00 0.00 56 1011.5
20240614180401 89 189 0.0 3.0 0.00 0.00 0.00 55 1011.7
20240614175901 89 167 2.0 6.0 0.00 0.00 0.00 58 1011.4
20240614175400 88 144 1.0 3.0 0.00 0.00 0.00 62 1011.6
20240614174858 88 264 3.0 5.0 0.00 0.00 0.00 60 1011.7
20240614174357 88 167 1.0 6.0 0.00 0.00 0.00 58 1011.8
20240614173857 87 247 2.0 3.0 0.00 0.00 0.00 54 1011.8
20240614173357 88 158 3.0 8.0 0.00 0.00 0.00 56 1011.6
20240614172855 87 278 2.0 2.0 0.00 0.00 0.00 55 1011.9
20240614172353 87 329 2.0 3.0 0.00 0.00 0.00 55 1012.0
20240614171851 87 245 4.0 6.0 0.00 0.00 0.00 53 1012.2
20240614171349 87 77 1.0 3.0 0.00 0.00 0.00 61 1012.3
20240614170849 86 125 3.0 3.0 0.00 0.00 0.00 55 1012.3
20240614170347 87 101 2.0 5.0 0.00 0.00 0.00 57 1012.0
20240614165846 87 279 2.0 3.0 0.00 0.00 0.00 58 1012.0
20240614165342 86 177 3.0 5.0 0.00 0.00 0.00 58 1012.0
20240614164842 87 164 2.0 3.0 0.00 0.00 0.00 60 1012.4
20240614164341 86 104 3.0 8.0 0.00 0.00 0.00 58 1012.3
20240614163839 87 150 2.0 2.0 0.00 0.00 0.00 53 1012.2
20240614163339 87 197 4.0 7.0 0.00 0.00 0.00 53 1012.4
20240614162838 87 311 4.0 5.0 0.00 0.00 0.00 54 1012.5
20240614162336 87 168 3.0 5.0 0.00 0.00 0.00 56 1012.4
20240614161835 86 325 2.0 3.0 0.00 0.00 0.00 55 1012.5
20240614161335 86 123 2.0 2.0 0.00 0.00 0.00 55 1012.7
20240614160834 85 276 3.0 6.0 0.00 0.00 0.00 56 1012.4
20240614160332 85 121 2.0 2.0 0.00 0.00 0.00 57 1012.3
20240614155831 86 185 4.0 6.0 0.00 0.00 0.00 55 1012.5
20240614155331 86 262 0.0 3.0 0.00 0.00 0.00 57 1012.6
20240614154830 85 176 1.0 2.0 0.00 0.00 0.00 58 1012.6
20240614154329 85 107 2.0 3.0 0.00 0.00 0.00 56 1012.7
20240614153828 84 263 6.0 7.0 0.00 0.00 0.00 56 1012.5
20240614153326 84 9 1.0 6.0 0.00 0.00 0.00 59 1012.5
20240614152823 86 118 2.0 6.0 0.00 0.00 0.00 57 1012.7
20240614152323 86 290 1.0 3.0 0.00 0.00 0.00 62 1012.7
20240614151822 86 318 0.0 6.0 0.00 0.00 0.00 59 1012.4
20240614151322 85 113 2.0 2.0 0.00 0.00 0.00 64 1012.8
20240614150821 84 282 2.0 2.0 0.00 0.00 0.00 61 1012.6
20240614150319 84 100 1.0 7.0 0.00 0.00 0.00 64 1012.7
20240614145815 85 129 2.0 3.0 0.00 0.00 0.00 62 1012.5
20240614145314 84 200 1.0 5.0 0.00 0.00 0.00 61 1012.4
20240614144813 84 280 2.0 5.0 0.00 0.00 0.00 63 1012.5
20240614144312 84 12 1.0 3.0 0.00 0.00 0.00 61 1012.5
20240614143811 83 284 0.0 1.0 0.00 0.00 0.00 69 1012.7
20240614143309 82 356 2.0 3.0 0.00 0.00 0.00 62 1012.8
20240614142808 82 122 0.0 3.0 0.00 0.00 0.00 63 1012.9
20240614142307 81 266 4.0 5.0 0.00 0.00 0.00 65 1012.9
20240614141806 81 328 1.0 5.0 0.00 0.00 0.00 68 1013.2
20240614141303 82 125 3.0 6.0 0.00 0.00 0.00 67 1013.1
20240614140802 82 291 1.0 2.0 0.00 0.00 0.00 67 1013.2
20240614140301 81 290 1.0 2.0 0.00 0.00 0.00 66 1013.0
20240614135800 81 168 3.0 6.0 0.00 0.00 0.00 68 1013.2
20240614135258 81 184 0.0 3.0 0.00 0.00 0.00 68 1013.2
20240614134755 80 255 1.0 1.0 0.00 0.00 0.00 69 1013.2
20240614134254 78 320 1.0 5.0 0.00 0.00 0.00 72 1013.4
20240614133752 79 133 4.0 5.0 0.00 0.00 0.00 73 1013.6
20240614133250 77 62 0.0 1.0 0.00 0.00 0.00 82 1013.6
20240614132748 78 64 0.0 1.0 0.00 0.00 0.00 80 1013.9
20240614132247 77 70 0.0 1.0 0.00 0.00 0.00 82 1013.9
20240614131746 76 67 0.0 0.0 0.00 0.00 0.00 82 1014.0
20240614131246 74 50 0.0 0.0 0.00 0.00 0.00 91 1013.7
20240614130744 71 57 0.0 0.0 0.00 0.00 0.00 99 1013.8
20240614130241 70 47 0.0 0.0 0.00 0.00 0.00 99 1013.7
20240614125740 69 51 0.0 0.0 0.00 0.00 0.00 99 1013.8
20240614125238 68 60 0.0 0.0 0.00 0.00 0.00 99 1013.8
20240614124731 68 63 0.0 0.0 0.00 0.00 0.00 99 1013.7
20240614124230 67 63 0.0 0.0 0.00 0.00 0.00 99 1013.9
20240614123730 67 62 0.0 0.0 0.00 0.00 0.00 99 1014.0
20240614123229 66 81 0.0 0.0 0.00 0.00 0.00 99 1014.0
20240614122728 67 48 0.0 0.0 0.00 0.00 0.00 99 1014.1
20240614122227 67 48 0.0 0.0 0.00 0.00 0.00 99 1013.9
20240614121725 66 48 0.0 0.0 0.00 0.00 0.00 99 1014.0
20240614121223 66 48 0.0 0.0 0.00 0.00 0.00 99 1013.8
20240614120721 66 49 0.0 0.0 0.00 0.00 0.00 99 1013.7
20240614120220 66 47 0.0 0.0 0.00 0.00 0.00 99 1013.6
20240614115719 66 166 0.0 0.0 0.00 0.00 0.00 99 1013.8
20240614115218 65 167 0.0 0.0 0.00 0.00 0.00 99 1013.8
20240614114717 65 167 0.0 0.0 0.00 0.00 0.00 99 1013.8
20240614114215 65 167 0.0 0.0 0.00 0.00 0.00 99 1013.8
20240614113714 64 167 0.0 0.0 0.00 0.00 0.00 99 1013.8
20240614113213 64 167 0.0 0.0 0.00 0.00 0.00 99 1013.6
20240614112712 64 167 0.0 0.0 0.00 0.00 0.00 99 1013.6
20240614112211 63 167 0.0 0.0 0.00 0.00 0.00 99 1013.7
20240614111710 63 187 0.0 1.0 0.00 0.00 0.00 99 1013.8
20240614111209 63 187 0.0 0.0 0.00 0.00 0.00 99 1013.9
20240614110707 63 187 0.0 0.0 0.00 0.00 0.00 99 1013.5
20240614110205 62 187 0.0 0.0 0.00 0.00 0.00 99 1013.3
20240614105705 62 187 0.0 0.0 0.00 0.00 0.00 99 1013.2
20240614105205 62 187 0.0 0.0 0.00 0.00 0.00 99 1013.0
20240614104704 62 185 0.0 0.0 0.00 0.00 0.00 99 1013.0
20240614104202 62 185 0.0 0.0 0.00 0.00 0.00 99 1012.9
20240614103701 62 185 0.0 0.0 0.00 0.00 0.00 99 1012.9
20240614103159 62 185 0.0 0.0 0.00 0.00 0.00 99 1012.9
20240614102657 62 185 0.0 0.0 0.00 0.00 0.00 99 1012.7
20240614102156 62 185 0.0 0.0 0.00 0.00 0.00 99 1012.5
20240614101654 62 186 0.0 1.0 0.00 0.00 0.00 99 1012.7
20240614101153 62 185 0.0 0.0 0.00 0.00 0.00 99 1012.2
20240614100653 62 185 0.0 0.0 0.00 0.00 0.00 99 1012.6
20240614100151 62 185 0.0 0.0 0.00 0.00 0.00 99 1012.5
20240614095651 62 185 0.0 0.0 0.00 0.00 0.00 99 1012.4
20240614095150 62 185 0.0 0.0 0.00 0.00 0.00 99 1012.5
20240614094649 62 185 0.0 0.0 0.00 0.00 0.00 99 1012.3
20240614094148 62 185 0.0 0.0 0.00 0.00 0.00 99 1012.4
20240614093647 62 185 0.0 0.0 0.00 0.00 0.00 99 1012.3
20240614093146 63 185 0.0 0.0 0.00 0.00 0.00 99 1012.0
20240614092645 63 185 0.0 0.0 0.00 0.00 0.00 99 1011.9
20240614092143 63 185 0.0 0.0 0.00 0.00 0.00 99 1012.0
20240614091642 63 185 0.0 0.0 0.00 0.00 0.00 99 1011.8
20240614091140 63 186 0.0 0.0 0.00 0.00 0.00 99 1012.3
20240614090639 63 172 1.0 2.0 0.00 0.00 0.00 99 1012.3
20240614090138 63 248 0.0 0.0 0.00 0.00 0.00 99 1012.5
20240614085637 63 171 2.0 2.0 0.00 0.00 0.00 99 1012.5
20240614085136 63 164 0.0 0.0 0.00 0.00 0.00 99 1012.9
20240614084635 63 166 0.0 0.0 0.00 0.00 0.00 99 1012.5
20240614084133 63 165 0.0 0.0 0.00 0.00 0.00 99 1012.3
20240614083631 63 165 0.0 0.0 0.00 0.00 0.00 99 1012.5
20240614083131 63 166 0.0 0.0 0.00 0.00 0.00 99 1012.4